This demonstration page uses our WeatherBlox Daily Observations layout. Learn more.

Hourly Observations for May 9, 2018

Temp ( °F °C ) Dew Point ( °F °C ) Humidity (%) Winds ( mph kmh ) Pressure ( in mb ) Visibility ( mi km ) Precip ( " mm )
2:55 am 02:55 Clear 55 13 52 11 88 88 Calm 30.18 1022 10 16.09344 0 0
3:55 am 03:55 Clear 52 11 52 11 100 100 Calm 30.21 1023 10 16.09344 0 0
4:15 am 04:15 Clear 52 11 50 10 94 94 Calm 30.21 1023 10 16.09344 0 0
4:35 am 04:35 Clear 52 11 52 11 100 100 Calm 30.21 1023 10 16.09344 0 0
4:55 am 04:55 Clear 52 11 52 11 100 100 Calm 30.21 1023 10 16.09344 0 0
5:15 am 05:15 Clear 50 10 50 10 100 100 Calm 30.21 1023 10 16.09344 0 0
5:35 am 05:35 Clear 50 10 50 10 100 100 Calm 30.21 1023 10 16.09344 0 0
5:55 am 05:55 Clear 50 10 50 10 100 100 Calm 30.21 1023 10 16.09344 0 0
6:15 am 06:15 Sunny 50 10 50 10 100 100 Calm 30.21 1023 10 16.09344 0 0
6:35 am 06:35 Sunny 50 10 50 10 100 100 Calm 30.21 1023 10 16.09344 0 0
6:55 am 06:55 Sunny 52 11 52 11 100 100 Calm 30.21 1023 10 16.09344 0 0
7:15 am 07:15 Sunny 54 12 52 11 94 94 Calm 30.18 1022 10 16.09344 0 0
7:35 am 07:35 Sunny 55 13 54 12 94 94 Calm 30.18 1022 10 16.09344 0 0
7:55 am 07:55 Sunny 59 15 54 12 82 82 Calm 30.18 1022 10 16.09344 0 0
8:15 am 08:15 Sunny 59 15 52 11 77 77 Calm 30.21 1023 10 16.09344 0 0
8:35 am 08:35 Sunny 61 16 54 12 77 77 Calm 30.18 1022 10 16.09344 0 0
8:55 am 08:55 Sunny 63 17 54 12 73 73 Calm 30.18 1022 10 16.09344 0 0
9:15 am 09:15 Sunny 63 17 54 12 73 73 Calm 30.18 1022 10 16.09344 0 0
9:35 am 09:35 Sunny 66 19 54 12 64 64 Calm 30.18 1022 10 16.09344 0 0
9:55 am 09:55 Sunny 68 20 54 12 60 60 Calm 30.18 1022 10 16.09344 0 0
10:15 am 10:15 Sunny 68 20 52 11 56 56 SSE 5 7 30.18 1022 10 16.09344 0 0
10:35 am 10:35 Sunny 70 21 52 11 53 53 Calm 30.18 1022 10 16.09344 0 0
10:55 am 10:55 Sunny 72 22 54 12 53 53 Calm 30.18 1022 10 16.09344 0 0
11:15 am 11:15 Sunny 72 22 52 11 50 50 S 3 6 30.15 1021 10 16.09344 0 0
11:35 am 11:35 Sunny 73 23 52 11 47 47 SSW 5 7 30.15 1021 10 16.09344 0 0
11:55 am 11:55 Sunny 75 24 54 12 47 47 S 5 7 30.15 1021 10 16.09344 0 0
12:15 pm 12:15 Sunny 75 24 52 11 44 44 Calm 30.15 1021 10 16.09344 0 0
12:35 pm 12:35 Sunny 75 24 50 10 41 41 E 3 6 30.15 1021 10 16.09344 0 0
12:55 pm 12:55 Partly Cloudy 77 25 52 11 42 42 WSW 3 6 30.15 1021 10 16.09344 0 0
1:15 pm 13:15 Sunny 77 25 50 10 39 39 SSE 3 6 30.15 1021 10 16.09344 0 0
1:35 pm 13:35 Sunny 79 26 50 10 37 37 ESE 3 6 30.15 1021 10 16.09344 0 0
1:55 pm 13:55 Sunny 79 26 50 10 37 37 SSW 8 13 30.12 1020 10 16.09344 0 0
2:15 pm 14:15 Sunny 79 26 50 10 37 37 Calm 30.12 1020 10 16.09344 0 0
2:35 pm 14:35 Sunny 81 27 50 10 34 34 SSW 7 11 30.12 1020 10 16.09344 0 0
2:55 pm 14:55 Sunny 79 26 50 10 37 37 SSE 5 7 30.12 1020 10 16.09344 0 0
3:15 pm 15:15 Partly Cloudy 79 26 50 10 37 37 SSE 3 6 30.09 1019 10 16.09344 0 0
3:35 pm 15:35 Partly Cloudy 79 26 50 10 37 37 E 9 15 30.09 1019 10 16.09344 0 0
3:55 pm 15:55 Partly Cloudy 81 27 50 10 34 34 SE 6 9 30.09 1019 10 16.09344 0 0
4:15 pm 16:15 Sunny 79 26 50 10 37 37 SSE 9 15 30.06 1018 10 16.09344 0 0
4:35 pm 16:35 Partly Cloudy 81 27 50 10 34 34 SSE 8 13 30.06 1018 10 16.09344 0 0
4:55 pm 16:55 Sunny 81 27 50 10 34 34 S 10 17 30.06 1018 10 16.09344 0 0
5:15 pm 17:15 Sunny 81 27 50 10 34 34 SE 8 13 30.06 1018 10 16.09344 0 0
5:35 pm 17:35 Sunny 81 27 50 10 34 34 S 9 15 30.06 1018 10 16.09344 0 0
5:55 pm 17:55 Sunny 81 27 50 10 34 34 S 10 17 30.06 1018 10 16.09344 0 0
6:15 pm 18:15 Sunny 79 26 50 10 37 37 S 9 15 30.06 1018 10 16.09344 0 0
6:35 pm 18:35 Sunny 79 26 50 10 37 37 S 10 17 30.06 1018 10 16.09344 0 0
6:55 pm 18:55 Sunny 79 26 50 10 37 37 S 14 22 30.06 1018 10 16.09344 0 0
7:15 pm 19:15 Sunny 77 25 50 10 39 39 S 13 20 30.06 1018 10 16.09344 0 0
7:35 pm 19:35 Sunny 77 25 48 9 36 36 S 10 17 30.06 1018 10 16.09344 0 0
7:55 pm 19:55 Sunny 75 24 48 9 39 39 SSE 8 13 30.06 1018 10 16.09344 0 0
8:15 pm 20:15 Clear 73 23 50 10 44 44 S 9 15 30.06 1018 10 16.09344 0 0
8:35 pm 20:35 Clear 73 23 50 10 44 44 S 8 13 30.06 1018 10 16.09344 0 0
8:55 pm 20:55 Clear 72 22 50 10 47 47 S 9 15 30.06 1018 10 16.09344 0 0
9:15 pm 21:15 Clear 72 22 50 10 47 47 SSE 6 9 30.06 1018 10 16.09344 0 0
9:35 pm 21:35 Clear 72 22 50 10 47 47 S 7 11 30.06 1018 10 16.09344 0 0
9:55 pm 21:55 Clear 70 21 50 10 50 50 SSE 7 11 30.09 1019 10 16.09344 0 0
10:15 pm 22:15 Clear 70 21 52 11 53 53 S 7 11 30.09 1019 10 16.09344 0 0
10:35 pm 22:35 Clear 68 20 52 11 56 56 S 5 7 30.09 1019 10 16.09344 0 0
10:55 pm 22:55 Clear 66 19 52 11 60 60 S 3 6 30.09 1019 10 16.09344 0 0
11:15 pm 23:15 Clear 66 19 52 11 60 60 S 6 9 30.06 1018 10 16.09344 0 0
11:35 pm 23:35 Clear 64 18 52 11 64 64 S 5 7 30.09 1019 10 16.09344 0 0
11:55 pm 23:55 Clear 64 18 52 11 64 64 S 6 9 30.06 1018 10 16.09344 0 0

Powered by AerisWeather